Regional Weather Roundup
Issued by NWS

Home | Current Version | Previous Version | Text Only | Print | Product List | Glossary Off
Versions: 1 2 3 4 5 6 7 8 9 10 11 12 13 14 15 16 17 18 19 20 21 22 23 24 25 26 27 28 29 30 31 32 33 34 35 36 37 38 39 40 41 42 43 44 45 46 47 48 49 50

000
ASUS43 KMKX 252300
RWRWI

WISCONSIN REGIONAL WEATHER ROUNDUP
NATIONAL WEATHER SERVICE MILWAUKEE/SULLIVAN WI
600 PM CDT SUN JUN 25 2017

NOTE: "FAIR" INDICATES FEW OR NO CLOUDS BELOW 12,000 FEET WITH NO
SIGNIFICANT WEATHER AND/OR OBSTRUCTIONS TO VISIBILITY.

WIZ001-002-006>008-014>016-023>028-260000-
NORTHWEST WISCONSIN

CITY           SKY/WX    TMP DP  RH WIND       PRES   REMARKS
SUPERIOR ARPT  NOT AVBL
ASHLAND        CLOUDY    56  49  77 W8        30.08S
HAYWARD        LGT RAIN  54  48  80 W7        30.09R
SIREN          LGT RAIN  57  45  65 N6G25     30.11R
CUMBERLAND     MOSUNNY   59  45  58 NW12      30.10F
RICE LAKE      CLOUDY    58  50  76 W8        30.11S
CHETEK         LGT RAIN  55  51  88 NW5G17    30.10R
LADYSMITH      PTSUNNY   61  48  62 NW12G18   30.09S
EAU CLAIRE     NOT AVBL
MENOMONIE      MOSUNNY   63  46  52 NW12G28   30.09F
NEW RICHMOND   PTSUNNY   64  40  40 NW15      30.11S
OSCEOLA        CLOUDY    66  39  36 NW12G24   30.13F
$$

WIZ003>005-009-010-017-018-260000-
NORTH CENTRAL WISCONSIN

CITY           SKY/WX    TMP DP  RH WIND       PRES   REMARKS
MANITOWISH WTR DRIZZLE   52  52 100 W9        30.04S
ARBOR VITAE    DRIZZLE   55  52  92 NW7       30.03S
WOODRUFF       DRIZZLE   55  52  92 NW7       30.03S
RHINELANDER    CLOUDY    55  52  89 NW12G17   30.04S
EAGLE RIVER    DRIZZLE   54  53  97 NW8       30.02S
LAND O LAKES   LGT RAIN  54  53  97 W6        30.02F
PHILLIPS       CLOUDY    54  50  86 NW5       30.06S
TOMAHAWK       NOT AVBL
MEDFORD        LGT RAIN  54  49  83 NW9G16    30.07R
MERRILL        CLOUDY    58  52  79 NW9G18    30.05S
$$

WIZ029-030-035-036-043>047-260000-
CENTRAL WISCONSIN

CITY           SKY/WX    TMP DP  RH WIND       PRES   REMARKS
WAUSAU         CLOUDY    58  50  75 NW13      30.03S
MOSINEE        PTSUNNY   57  54  88 NW12      30.06
MARSHFIELD     PTSUNNY   59  53  80 NW10      30.07S
STEVENS POINT  CLOUDY    56  54  94 W8        30.06S
WAUPACA        DRIZZLE   58  56  91 NW8       30.05R
WAUTOMA        LGT RAIN  56  53  90 NW10      30.07R
WISC RAPIDS    LGT RAIN  59  56  89 NW9       30.08F
CAMP DOUGLAS   NOT AVBL
$$

WIZ011>013-019>022-031-037>040-048>050-260000-
NORTHEAST WISCONSIN

CITY           SKY/WX    TMP DP  RH WIND       PRES   REMARKS
ANTIGO         CLOUDY    54  52  93 NW10      30.04S
SHAWANO        RAIN      58  53  86 W5        30.02R
OCONTO         CLOUDY    58  54  84 W9        29.99S
STURGEON BAY     N/A     62  51  67 W7G16       N/A
GREEN BAY      LGT RAIN  65  54  67 W12       30.01R
MANITOWOC      NOT AVBL
APPLETON       LGT RAIN  59  48  67 W12G18    30.02R
CLINTONVILLE   CLOUDY    59  50  72 NW9G16    30.03S
OSHKOSH        CLOUDY    63  49  60 W7G18     30.03S
$$

WIZ032>034-041-042-053>061-260000-
SOUTHWEST WISCONSIN

CITY           SKY/WX    TMP DP  RH WIND       PRES   REMARKS
LA CROSSE      SUNNY     72  46  39 W20G26    30.09F
SPARTA         CLOUDY    61  54  78 N7        30.10F
VIROQUA        PTSUNNY   64  53  69 W12G18    30.11F
BOSCOBEL       MOSUNNY   66  50  56 W13       30.12F
PRAIRIE DU CHI MOSUNNY   67  48  50 W14G21    30.12F
PLATTEVILLE    PTSUNNY   65  51  61 W14G24    30.13F
$$

WIZ056-057-062-063-064-067-068-260000-
SOUTH CENTRAL WISCONSIN

CITY           SKY/WX    TMP DP  RH WIND       PRES   REMARKS
REEDSBURG      CLOUDY    62  53  72 NW21G30   30.10R
BARABOO/DELLS  CLOUDY    60  54  79 W8        30.09S
LONE ROCK      NOT AVBL
MINERAL POINT  CLOUDY    63  52  67 W15G22    30.12S
MADISON        PTSUNNY   64  50  60 W9        30.08S
MIDDLETON      PTSUNNY   65  51  60 W14G21    30.09S
WATERTOWN      NOT AVBL
MONROE         PTSUNNY   63  48  59 W13G22    30.11S
JANESVILLE     PTSUNNY   66  48  52 W16G22    30.09S
$$

WIZ051-052-058>065-066-070>072-260000-
SOUTHEAST WISCONSIN

CITY           SKY/WX    TMP DP  RH WIND       PRES   REMARKS
MILWAUKEE      MOSUNNY   69  47  45 W15       30.04S
WAUKESHA       MOSUNNY   64  46  52 W15G22    30.07R
MILWAUKEE/TIMM MOSUNNY   66  45  45 W14G20    30.05S
RACINE         MOSUNNY   68  47  46 NW13G23   30.06S
KENOSHA        MOSUNNY   68  49  50 W17G23    30.05S
FOND DU LAC    CLOUDY    65  48  54 W18       30.04R
SHEBOYGAN      MOSUNNY   67  51  56 W17G25    30.01S
WEST BEND      PTSUNNY   64  46  52 W16       30.04S
JUNEAU         PTSUNNY   63  49  61 W14G21    30.07S
$$

LSZ147-162-260000-
LAKE SUPERIOR

STATION/POSITION TIME  TEMP    WIND        PRES    WAVE
                       AIR SEA DIR/SP/G            HT/PER
                 (UTC) (F)     (DEG/KT/KT) (MB)    (FT/S)
W MID LAKE BUOY  2150   42 39  300/  4/  6 1017.1R   0
DEVILS ISLAND    2200   48     350/  8/  8 1018.4R
SAXON HARBOR     2230   55     280/ 11/ 16 1017.6S
$$

LMZ867-665-643>646-260000-
LAKE MICHIGAN

STATION/POSITION TIME  TEMP    WIND        PRES    WAVE
                       AIR SEA DIR/SP/G            HT/PER
                 (UTC) (F)     (DEG/KT/KT) (MB)    (FT/S)
CHAMBERS ISLAND  2240   58     220/  3/  3 1015.2F
S GREEN BAY BUOY 2230   59     340/ 12/ 14 1015.4R
N MID LAKE BUOY  2150   58 58  200/ 10/ 10 1015.7F   1/ 5
NORTHPORT PIER   2240   61      CALM  /  4 1015.2R
KEWAUNEE LAKESHO 2230   56      70/  4/  6 1015.5S
SHEBOYGAN LAKESH 2200   67     270/ 11/ 13 1015.9F
PORT WASHINGTON  2240   69     260/ 13/ 21 1017.3S
ATWATER BUOY     2109   65 57  270/ 14/ 19 1017.3F
MILWAUKEE LAKESH 2230   66     260/ 15/ 17   N/A
S MID LAKE BUOY  2150   63 62  260/  6/  6 1017.4F   2/ 4
KENOSHA   LAKESH 2200   69     280/ 11/ 20 1016.9
$$

TC  - TEMPERATURE IN CELSIUS
VSB - VISIBILITY IN STATUTE MILES
WCI - WIND CHILL INDEX
HX  - HEAT INDEX





USA.gov is the U.S. government's official web portal to all federal, state and local government web resources and services.